Weather in Oleshnia

Ukraine / Chernihiv Region     51°57′14″N   31°09′04″E
temp.,
°C
wind,
m/s
gust,
m/s
humid.,
%
clouds,
%
prec.,
mm/h
press.,
hPa
HPBL,
m
28 july, wed
wed2800:00+19sse31283100 1.4 1016245
03:00+17s3895100 5.8 1014194
06:00+18ssw2596100 0.4 1014149
09:00+22ssw358318 0.7 1013506
12:00+26wsw456323 0.4 10121368
15:00+28wnw365068 1.8 10121849
18:00+27w255546 0.0 1011630
21:00+23w226768 0.0 101115
29 july, thu
thu2900:00+21wnw227338 0.0 101216
03:00+21w11703 0.0 101121
06:00+19wnw12781 0.0 101114
09:00+25ssw22572 0.0 1010354
12:00+30sw24402 0.0 10101747
15:00+31s453920 0.0 10082086
18:00+25s356577 0.4 1006103
21:00+21sw51095100 8.4 1007517
30 july, fri
fri3000:00+18nw3996100 7.3 1008276
03:00+18wnw3898100 7.3 1008307
06:00+18wnw279989 0.0 1009300
09:00+22nw35790 0.0 1010471
12:00+27wnw354671 0.0 10102172
15:00+28nw454165 0.0 10092039
18:00+27nw354484 0.0 10091539
21:00+21nw116071 0.0 100911
31 july, sat
sat3100:00+20ssw22623 0.0 101013
03:00+18sw2272100 0.0 101027
06:00+18sw367510 0.0 1010112
09:00+24sw36535 0.0 1010350
12:00+29wsw464316 0.0 10101705
15:00+31sw463424 0.0 10092851
18:00+30ssw354220 0.0 1007912
21:00+25s3105541 0.0 1007293
1 august, sun
sun100:00+23s4145516 0.0 1007409
03:00+22sw38646 0.0 1006295
06:00+19wsw41091100 0.0 1007468
09:00+22wnw47729 0.0 1009726
12:00+26wnw46461 0.0 10101526
15:00+28wnw45354 0.0 10101901
18:00+27nw23375 0.0 10091603
21:00+20n12615 0.0 101011